[[{"header":{"parameterUnit":"m.s-1","parameterCategory":1,"la1":30.2991,"la2":30.254,"lo1":-89.0895,"lo2":-89.0444,"dy":0.0017,"dx":0.0017,"nx":28,"ny":28,"refTime":"2023-07-21T09:00:00:Z","depth":0,"parameterNumber":2,"parameterNumberName":"U-component_of_WINDS"},"data":[0,0,0,0,0,0,0,0,0,0,0,0,0,0,0,0,0,0,0,0,0,0,0,0,0,0,0,0,0,0,0,0,0,0,0,0,0,0,0,0,0,0,0,0,0,0,0,0,0,0,0,0,0,0,0,0,0,0,0.3796,0.3796,0,0.3739,0.3738,0.3738,0.3547,0.3542,0.3538,0.3534,0.3483,0.3486,0.3489,0,0,0,0,0,0,0,0,0,0,0,0,0,0.3749,0.3751,0.3797,0.3796,0.3795,0.3739,0.3738,0.3737,0.3548,0.3542,0.3537,0.3532,0.3483,0.3486,0.3489,0,0,0,0,0,0,0,0,0,0,0,0,0,0.3739,0.3751,0.3797,0.3693,0.3683,0.3739,0.3738,0.3737,0.3549,0.3542,0.3536,0.353,0.3482,0.3485,0.3489,0.3643,0,0,0.3502,0.3503,0,0,0,0,0,0,0,0,0.3739,0.3741,0.3709,0.37,0.369,0.3643,0.3702,0.3706,0.355,0.36,0.3534,0.3527,0.3542,0.3541,0.3545,0.364,0.3638,0.3502,0.3504,0.3506,0.3507,0,0,0,0,0,0,0,0.374,0.3742,0.3774,0.3709,0.3697,0.3652,0.3643,0.3702,0.3608,0.3595,0.3581,0.3577,0.3536,0.3541,0.3542,0.3638,0.3502,0.3505,0.3508,0.3509,0.3857,0.3863,0,0,0,0,0,0,0.3755,0.3744,0.3776,0.3772,0.3699,0.3658,0.3648,0.3665,0.3607,0.3592,0.3582,0.3568,0.3538,0.3538,0.354,0.3715,0.3506,0.351,0.3512,0.385,0.3858,0.3865,0,0,0,0,0,0,0.3754,0.3759,0.3778,0.3754,0.3753,0.3666,0.3686,0.3667,0.3672,0.3597,0.358,0.3605,0.3532,0.3534,0.3618,0.3711,0.3511,0.3515,0.3842,0.3852,0.3862,0.4069,0,0,0,0,0,0,0.3754,0.376,0.3816,0.3757,0.3755,0.3856,0.3691,0.3671,0.3678,0.3659,0.3614,0.36,0.3528,0.3613,0.3622,0.3713,0.3518,0.3833,0.3846,0.3858,0.4054,0.4085,0.4112,0,0,0,0,0,0.3753,0.3879,0.382,0.3825,0.3823,0.3862,0.3861,0.3773,0.3687,0.3743,0.3695,0.3601,0.3699,0.3623,0.3632,0.3725,0.3827,0.3843,0.3858,0.4041,0.4079,0.4112,0,0,0,0,0,0,0.3955,0.3869,0.3803,0.3913,0.3896,0.3829,0.3898,0.3817,0.3826,0.3808,0.37,0.3692,0.3791,0.3766,0.3683,0.3871,0.3747,0.3765,0.3884,0.392,0.3948,0.3953,0.3522,0,0,0,0,0,0.4012,0.4048,0.3972,0.4077,0.4071,0.3987,0.4001,0.3934,0.3913,0.3905,0.3863,0.3848,0.3875,0.3896,0.3917,0.4048,0.4037,0.4117,0.4146,0.4171,0.4188,0.4256,0.4292,0.3916,0.3916,0.3915,0,0,0.4131,0.4089,0.4119,0.4116,0.4095,0.4138,0.3982,0.4034,0.4065,0.3914,0.399,0.3959,0.3935,0.4044,0.409,0.4026,0.4289,0.419,0.421,0.4214,0.4276,0.4312,0.4343,0.3926,0.3924,0.3923,0,0,0.437,0.4341,0.4424,0.4405,0.4374,0.4316,0.4337,0.4282,0.4255,0.4329,0.4216,0.4253,0.4302,0.4289,0.429,0.4523,0.4437,0.4533,0.4687,0.4755,0.4784,0.481,0.4894,0.4925,0.455,0.455,0.4551,0,0.4523,0.4579,0.4478,0.4536,0.4539,0.4401,0.4486,0.4474,0.4453,0.4459,0.4387,0.4445,0.442,0.4524,0.458,0.4585,0.4606,0.4538,0.4787,0.4812,0.4835,0.4914,0.4946,0.4562,0.4561,0.4559,0.4558,0,0.4769,0.481,0.4882,0.4861,0.4872,0.4944,0.4856,0.488,0.4812,0.4763,0.4841,0.4805,0.4816,0.4835,0.4771,0.4931,0.4892,0.4806,0.468,0.4884,0.4957,0.4986,0.4579,0.4575,0.4571,0.4568,0,0,0.5135,0.5056,0.5084,0.5073,0.5027,0.5059,0.5125,0.5132,0.5155,0.5145,0.5199,0.5243,0.5162,0.5163,0.5095,0.5155,0.5343,0.506,0.5058,0.5115,0.5518,0.5585,0.5621,0.5285,0.529,0.5294,0.552,0,0.5362,0.5467,0.5378,0.5502,0.5539,0.5408,0.5465,0.5446,0.5401,0.5429,0.538,0.5413,0.5303,0.5303,0.5356,0.5309,0.5422,0.5291,0.5337,0.534,0.5348,0.5659,0.5729,0.5944,0.5548,0.5553,0.5556,0,0.5641,0.564,0.5767,0.5712,0.5724,0.5778,0.5777,0.5804,0.5779,0.5743,0.5743,0.5659,0.5722,0.5598,0.5684,0.5597,0.561,0.559,0.5596,0.5599,0.5462,0.5671,0.6011,0.6044,0.56,0.5596,0.5593,0,0.5897,0.5928,0.6007,0.6001,0.5939,0.598,0.5957,0.5924,0.5935,0.5936,0.5941,0.5951,0.5957,0.5967,0.5889,0.5805,0.5987,0.5855,0.596,0.5963,0.6006,0.6005,0.6354,0.6013,0.6012,0.6012,0.6011,0,0.616,0.6244,0.612,0.617,0.6259,0.6156,0.6249,0.6212,0.6184,0.6226,0.6114,0.6156,0.6049,0.608,0.602,0.6102,0.6105,0.6079,0.6063,0.609,0.6094,0.6099,0.6083,0.602,0.6018,0.6017,0.6015,0,0.6462,0.6383,0.6461,0.6394,0.638,0.6449,0.6393,0.6438,0.6385,0.6439,0.6446,0.6365,0.6396,0.6318,0.6339,0.6298,0.6415,0.6374,0.6424,0.6412,0.6522,0.6513,0.6888,0.6932,0.6562,0.6565,0.6568,0,0.6636,0.6696,0.6636,0.6654,0.6636,0.6667,0.6676,0.6577,0.6592,0.6567,0.6615,0.6636,0.6647,0.6704,0.6649,0.6664,0.6623,0.6753,0.6625,0.6651,0.6627,0.6625,0.6631,0.6781,0.6785,0.6789,0.6792,0,0.6954,0.6911,0.6927,0.693,0.6943,0.6941,0.6931,0.6953,0.6848,0.6871,0.6899,0.6908,0.6927,0.6951,0.6953,0.6931,0.6846,0.6832,0.6858,0.6887,0.6914,0.6902,0.6497,0.6825,0.6821,0.6819,0.6817,0.6816,0.7198,0.7245,0.7209,0.7231,0.7212,0.7206,0.7244,0.7195,0.7216,0.7222,0.7163,0.7205,0.7178,0.7172,0.7159,0.7192,0.7133,0.717,0.7179,0.719,0.7209,0.6907,0.7192,0.7191,0.719,0.7189,0.7188,0,0.7511,0.7481,0.7501,0.749,0.7507,0.742,0.7405,0.7427,0.7464,0.7445,0.7457,0.7491,0.7513,0.7459,0.7473,0.751,0.7471,0.7517,0.7514,0.7511,0.726,0.7237,0.7548,0.7548,0.7548,0.7548,0.7548,0.7548,0.7676,0.7751,0.7704,0.777,0.774,0.7777,0.7776,0.777,0.7754,0.7796,0.7812,0.7775,0.7743,0.7753,0.777,0.7753,0.7765,0.7825,0.7796,0.7563,0.7528,0.7495,0.7473,0.7828,0.7828,0.8043,0.8045,0.8047]},{"header":{"parameterUnit":"m.s-1","parameterCategory":1,"la1":30.2991,"la2":30.254,"lo1":-89.0895,"lo2":-89.0444,"dy":0.0017,"dx":0.0017,"nx":28,"ny":28,"refTime":"2023-07-21T09:00:00:Z","depth":0,"parameterNumber":3,"parameterNumberName":"V-component_of_WINDS"},"data":[0,0,0,0,0,0,0,0,0,0,0,0,0,0,0,0,0,0,0,0,0,0,0,0,0,0,0,0,0,0,0,0,0,0,0,0,0,0,0,0,0,0,0,0,0,0,0,0,0,0,0,0,0,0,0,0,0,0,2.2067,2.2067,0,2.2092,2.2092,2.2093,2.1957,2.1954,2.195,2.1946,2.1971,2.1975,2.1979,0,0,0,0,0,0,0,0,0,0,0,0,0,2.1899,2.1903,2.2067,2.2067,2.2068,2.2092,2.2092,2.2093,2.1958,2.1953,2.1949,2.1944,2.1969,2.1974,2.1979,0,0,0,0,0,0,0,0,0,0,0,0,0,2.1953,2.1904,2.2067,2.2003,2.1998,2.2092,2.2092,2.2093,2.1959,2.1953,2.1947,2.1942,2.1967,2.1974,2.198,2.2136,0,0,2.2,2.2002,0,0,0,0,0,0,0,0,2.195,2.1959,2.2012,2.2008,2.2002,2.2016,2.2042,2.2107,2.1961,2.1974,2.1946,2.1939,2.199,2.1994,2.2012,2.2137,2.2138,2.2,2.2004,2.2007,2.2009,0,0,0,0,0,0,0,2.1947,2.1958,2.2077,2.2013,2.2007,2.1973,2.1974,2.2054,2.2014,2.1972,2.1963,2.1967,2.1986,2.2006,2.2011,2.2138,2.2,2.2006,2.201,2.2012,2.2389,2.2395,0,0,0,0,0,0,2.1952,2.1955,2.2076,2.2077,2.1961,2.198,2.1982,2.2017,2.2013,2.2007,2.1972,2.1961,2.1998,2.2004,2.2012,2.2191,2.2007,2.2013,2.2016,2.2383,2.239,2.2397,0,0,0,0,0,0,2.1949,2.1964,2.2075,2.2014,2.2025,2.1989,2.203,2.2021,2.204,2.2013,2.2005,2.2,2.1994,2.2003,2.2105,2.219,2.2016,2.2021,2.2375,2.2385,2.2393,2.2553,0,0,0,0,0,0,2.1944,2.1964,2.2023,2.2016,2.2029,2.217,2.2036,2.2025,2.2052,2.2037,2.2037,2.2031,2.199,2.2096,2.2112,2.2196,2.2026,2.2368,2.238,2.2391,2.254,2.2567,2.2589,0,0,0,0,0,2.1939,2.2068,2.2027,2.2042,2.2103,2.2175,2.2182,2.2132,2.2059,2.2118,2.21,2.2031,2.2179,2.2108,2.2124,2.2211,2.2362,2.2376,2.239,2.2529,2.2561,2.2589,0,0,0,0,0,0,2.2086,2.2066,2.202,2.2151,2.2166,2.2152,2.2225,2.2168,2.2204,2.2189,2.2124,2.2125,2.2238,2.2235,2.2157,2.236,2.2257,2.2275,2.2358,2.2388,2.2413,2.241,2.2032,0,0,0,0,0,2.2134,2.2194,2.2173,2.229,2.23,2.2262,2.2291,2.2251,2.2263,2.2268,2.2258,2.2272,2.2321,2.2355,2.2399,2.2539,2.2536,2.2607,2.2632,2.2652,2.2668,2.2739,2.2769,2.2442,2.2442,2.2442,0,0,2.2232,2.2229,2.2271,2.2319,2.2326,2.2388,2.2267,2.234,2.2385,2.2279,2.2374,2.2368,2.2379,2.25,2.2553,2.2501,2.2757,2.267,2.2686,2.2691,2.2756,2.2787,2.2814,2.2452,2.245,2.2449,0,0,2.2444,2.2449,2.2545,2.2554,2.2565,2.2538,2.2562,2.2557,2.2548,2.2643,2.2564,2.2616,2.2703,2.2713,2.273,2.2944,2.2881,2.296,2.3088,2.3158,2.3184,2.3206,2.328,2.3308,2.2976,2.2976,2.2977,0,2.2565,2.2657,2.2602,2.2678,2.2701,2.2608,2.2704,2.2715,2.2741,2.2758,2.2699,2.2804,2.2806,2.2926,2.2978,2.2996,2.3019,2.2959,2.3185,2.3207,2.3227,2.3296,2.3325,2.2986,2.2985,2.2984,2.2983,0,2.2804,2.2869,2.2945,2.2971,2.3002,2.3089,2.3045,2.3083,2.304,2.3019,2.3116,2.3114,2.3155,2.3181,2.314,2.3296,2.3262,2.3196,2.3091,2.3268,2.3332,2.3359,2.2999,2.2996,2.2993,2.2991,0,0,2.3108,2.3102,2.313,2.314,2.3145,2.3193,2.3274,2.3314,2.3346,2.3367,2.3432,2.3507,2.3444,2.3463,2.3423,2.3485,2.365,2.3409,2.3408,2.3452,2.3818,2.3867,2.3899,2.3609,2.3614,2.3618,2.3817,0,2.3313,2.3451,2.3403,2.3543,2.36,2.3513,2.3583,2.3593,2.3576,2.3621,2.3601,2.3654,2.3569,2.3579,2.3637,2.3618,2.3723,2.3603,2.3667,2.367,2.3665,2.3933,2.3985,2.4172,2.3842,2.3846,2.3849,0,2.357,2.36,2.3746,2.3738,2.3761,2.3825,2.3855,2.3901,2.391,2.3892,2.3913,2.3859,2.3936,2.3833,2.3937,2.3857,2.3881,2.3875,2.3881,2.3884,2.3769,2.394,2.4231,2.4259,2.3888,2.3885,2.3882,0,2.3774,2.3851,2.3947,2.3958,2.3953,2.3999,2.3999,2.4002,2.4028,2.4056,2.4071,2.4108,2.4127,2.4156,2.4112,2.4042,2.4222,2.4116,2.4208,2.4209,2.4249,2.4246,2.4545,2.4268,2.4268,2.4267,2.4266,0,2.4006,2.4098,2.4038,2.4097,2.4197,2.414,2.424,2.423,2.4234,2.4288,2.4215,2.4268,2.4208,2.4255,2.4221,2.4311,2.4321,2.4308,2.4298,2.4313,2.4315,2.4326,2.4311,2.4274,2.4273,2.4271,2.427,0,2.425,2.4214,2.4312,2.4299,2.4297,2.4371,2.4359,2.4412,2.439,2.4459,2.4473,2.4437,2.4488,2.4447,2.4498,2.4475,2.4593,2.4565,2.459,2.4582,2.4675,2.4666,2.4991,2.5029,2.4729,2.4732,2.4735,0,2.4399,2.4467,2.4461,2.4492,2.4496,2.4548,2.4574,2.452,2.455,2.4564,2.4616,2.466,2.4693,2.4778,2.4756,2.4794,2.4765,2.4876,2.477,2.4783,2.4763,2.4759,2.4765,2.4897,2.49,2.4903,2.4906,0,2.4667,2.4645,2.4685,2.4719,2.4752,2.4776,2.4794,2.4824,2.4769,2.4806,2.4857,2.4883,2.4933,2.4978,2.5008,2.5006,2.4947,2.4939,2.4962,2.4978,2.4989,2.4982,2.4646,2.4932,2.4929,2.4927,2.4926,2.4925,2.4866,2.4921,2.4925,2.4971,2.4979,2.4998,2.5046,2.5029,2.5071,2.5108,2.5074,2.5135,2.514,2.5173,2.5179,2.5225,2.5179,2.5213,2.5221,2.523,2.5242,2.4983,2.5231,2.523,2.5229,2.5229,2.5228,0,2.5127,2.5125,2.5168,2.5195,2.5232,2.5173,2.519,2.5224,2.5279,2.5288,2.5322,2.5379,2.5422,2.5403,2.544,2.5481,2.5454,2.5492,2.5487,2.5488,2.5283,2.5258,2.5513,2.5513,2.5512,2.5512,2.5512,2.5512,2.5267,2.5357,2.5336,2.5429,2.5426,2.5485,2.5499,2.5515,2.5522,2.559,2.5625,2.5612,2.561,2.5646,2.5682,2.5675,2.5691,2.5739,2.5722,2.553,2.5502,2.5475,2.5452,2.5743,2.5743,2.5922,2.5924,2.5925]}]]